Weather History for KCNB - August, 2013

Change the Weather History Date:

Wednesday, August 21, 2013

  Actual Average (KMML) Record (KMML)
Temperature  
Mean Temperature 78 °F -  
Max Temperature 86 °F 81 °F 95 °F (1959)
Min Temperature 68 °F 59 °F 37 °F (2004)
Cooling Degree Days 12    
Growing Degree Days 28 (Base 50)    
Moisture  
Dew Point 69 °F    
Average Humidity 75    
Maximum Humidity 95    
Minimum Humidity 59    
Precipitation  
Precipitation 0.00 in - - ()
Sea Level Pressure  
Sea Level Pressure 29.92 in    
Wind  
Wind Speed 7 mph (NW)    
Max Wind Speed 16 mph    
Max Gust Speed 22 mph    
Visibility 10 miles    
Events      
Averages and records for this station are not official NWS values.
T = Trace of Precipitation, MM = Missing Value Source: NWS Daily Summary

Daily Weather History Graph

Daily Weather History Graph

Search for Another Location

Airport or City:

Trip Planner

Search our weather history database for the weather conditions in past years. The results will help you decide how hot, cold, wet, or windy it might be!

Date:

Astronomy

Aug. 21, 2013 Rise Set
Actual Time 6:34 AM CDT 8:20 PM CDT
Civil Twilight 6:03 AM CDT 8:51 PM CDT
Nautical Twilight 5:25 AM CDT 9:29 PM CDT
Astronomical Twilight 4:44 AM CDT 10:10 PM CDT
Moon 8:24 PM CDT (8/21) 7:20 AM CDT (8/21)
Length of Visible Light 14h 47m
Length of Day
13h 45m
Waxing Gibbous, 99% of the Moon is Illuminated
Aug 21
Waxing Gibbous
Aug 28
Last Quarter
Sep 5
New
Sep 12
First Quarter
Sep 19
Full

Hourly Weather History & Observations

Time (CDT) Temp. Heat Index Dew Point Humidity Pressure Visibility Wind Dir Wind Speed Gust Speed Precip Events Conditions
12:14 AM 72.0 °F - 70.3 °F 95% 29.84 in 7.0 mi SSE 3.5 mph - N/A   Clear
12:34 AM 76.3 °F - 73.0 °F 90% 29.83 in 7.0 mi South 4.6 mph - N/A   Clear
12:54 AM 77.4 °F - 72.7 °F 85% 29.83 in 10.0 mi South 6.9 mph - N/A   Clear
1:14 AM 78.3 °F - 72.5 °F 82% 29.83 in 10.0 mi SSW 8.1 mph - N/A   Clear
1:34 AM 78.4 °F - 72.1 °F 81% 29.82 in 10.0 mi SW 12.7 mph 19.6 mph N/A   Clear
1:54 AM 77.9 °F - 72.1 °F 82% 29.83 in 10.0 mi SW 15.0 mph 21.9 mph N/A   Clear
2:14 AM 77.4 °F - 71.8 °F 83% 29.83 in 10.0 mi SW 16.1 mph 21.9 mph N/A   Clear
2:34 AM 77.2 °F - 71.6 °F 83% 29.82 in 10.0 mi SW 12.7 mph 20.7 mph N/A   Clear
2:54 AM 77.0 °F - 71.6 °F 83% 29.82 in 10.0 mi SW 12.7 mph 17.3 mph N/A   Clear
3:14 AM 77.0 °F - 71.2 °F 82% 29.81 in 10.0 mi SW 11.5 mph 17.3 mph N/A   Clear
3:34 AM 76.3 °F - 71.1 °F 84% 29.81 in 10.0 mi SW 8.1 mph 16.1 mph N/A   Clear
3:54 AM 75.9 °F - 70.7 °F 84% 29.81 in 10.0 mi SW 10.4 mph - N/A   Clear
4:14 AM 75.4 °F - 70.7 °F 85% 29.82 in 10.0 mi SW 8.1 mph - N/A   Clear
4:34 AM 75.2 °F - 70.5 °F 85% 29.82 in 10.0 mi SW 8.1 mph - N/A   Clear
4:54 AM 74.7 °F - 70.2 °F 86% 29.82 in 10.0 mi SW 4.6 mph - N/A   Clear
5:14 AM 73.8 °F - 69.8 °F 87% 29.82 in 10.0 mi SW 9.2 mph - N/A   Clear
5:34 AM 73.4 °F - 69.4 °F 87% 29.83 in 10.0 mi SW 8.1 mph - N/A   Clear
5:54 AM 72.7 °F - 69.1 °F 88% 29.84 in 10.0 mi SW 6.9 mph - N/A   Clear
6:14 AM 73.2 °F - 69.3 °F 87% 29.84 in 10.0 mi SW 6.9 mph - N/A   Clear
6:34 AM 73.2 °F - 69.1 °F 87% 29.86 in 7.0 mi WSW 10.4 mph - N/A   Clear
6:54 AM 73.4 °F - 68.9 °F 86% 29.87 in 10.0 mi West 5.8 mph - N/A   Clear
7:14 AM 73.2 °F - 68.9 °F 86% 29.88 in 7.0 mi WSW 5.8 mph - N/A   Clear
7:34 AM 72.9 °F - 69.1 °F 88% 29.88 in 7.0 mi West 3.5 mph - N/A   Clear
7:54 AM 73.2 °F - 69.3 °F 87% 29.88 in 7.0 mi Calm Calm - N/A   Clear
8:14 AM 73.9 °F - 69.4 °F 86% 29.89 in 7.0 mi Calm Calm - N/A   Clear
8:34 AM 75.4 °F - 69.8 °F 83% 29.89 in 10.0 mi Calm Calm - N/A   Clear
8:54 AM 76.6 °F - 70.5 °F 81% 29.89 in 10.0 mi West 3.5 mph - N/A   Clear
9:14 AM 77.7 °F - 71.6 °F 81% 29.90 in 10.0 mi NW 3.5 mph - N/A   Mostly Cloudy
9:34 AM 78.8 °F - 72.1 °F 80% 29.90 in 10.0 mi NW 3.5 mph - N/A   Overcast
9:54 AM 79.9 °F - 72.1 °F 77% 29.91 in 10.0 mi NNW 8.1 mph - N/A   Mostly Cloudy
10:14 AM 80.1 °F 84.1 °F 72.5 °F 78% 29.91 in 10.0 mi NNW 11.5 mph - N/A   Overcast
10:34 AM 80.6 °F 85.0 °F 72.7 °F 77% 29.92 in 10.0 mi NNW 10.4 mph - N/A   Mostly Cloudy
10:54 AM 79.7 °F - 72.3 °F 78% 29.93 in 10.0 mi NNW 11.5 mph - N/A   Mostly Cloudy
11:14 AM 78.6 °F - 71.2 °F 78% 29.94 in 7.0 mi NNW 9.2 mph - N/A   Overcast
11:34 AM 80.1 °F 83.4 °F 70.7 °F 73% 29.94 in 10.0 mi North 5.8 mph - N/A   Mostly Cloudy
11:54 AM 79.9 °F - 69.8 °F 71% 29.95 in 10.0 mi NNW 6.9 mph - N/A   Scattered Clouds
12:14 PM 81.3 °F 85.0 °F 70.2 °F 69% 29.95 in 10.0 mi North 8.1 mph - N/A   Clear
12:34 PM 81.0 °F 84.4 °F 70.0 °F 69% 29.95 in 10.0 mi NNW 6.9 mph - N/A   Clear
12:54 PM 82.2 °F 86.0 °F 70.0 °F 66% 29.96 in 10.0 mi North 8.1 mph - N/A   Clear
1:14 PM 82.4 °F 85.8 °F 68.9 °F 64% 29.97 in 10.0 mi Calm Calm - N/A   Clear
1:34 PM 82.4 °F 85.8 °F 69.1 °F 64% 29.97 in 10.0 mi North 5.8 mph - N/A   Clear
1:54 PM 81.9 °F 85.2 °F 69.3 °F 65% 29.97 in 10.0 mi NNW 3.5 mph - N/A   Clear
2:14 PM 82.8 °F 86.2 °F 69.1 °F 63% 29.97 in 10.0 mi North 3.5 mph - N/A   Clear
2:34 PM 84.4 °F 88.5 °F 69.6 °F 61% 29.97 in 10.0 mi North 5.8 mph - N/A   Clear
2:54 PM 85.1 °F 89.1 °F 69.3 °F 59% 29.97 in 10.0 mi North 8.1 mph - N/A   Clear
3:14 PM 85.5 °F 89.8 °F 69.8 °F 59% 29.97 in 10.0 mi North 11.5 mph - N/A   Scattered Clouds
3:34 PM 85.3 °F 89.8 °F 69.8 °F 60% 29.97 in 10.0 mi North 9.2 mph 16.1 mph N/A   Scattered Clouds
3:54 PM 84.9 °F 89.7 °F 70.5 °F 62% 29.97 in 10.0 mi North 10.4 mph 17.3 mph N/A   Clear
4:14 PM 84.4 °F 89.0 °F 70.3 °F 63% 29.97 in 10.0 mi North 10.4 mph - N/A   Clear
4:34 PM 85.5 °F 90.4 °F 70.5 °F 61% 29.96 in 10.0 mi NNE 10.4 mph - N/A   Clear
4:54 PM 84.6 °F 88.8 °F 69.6 °F 61% 29.97 in 10.0 mi NNE 5.8 mph - N/A   Clear
5:14 PM 84.2 °F 88.1 °F 69.6 °F 61% 29.97 in 10.0 mi NNE 5.8 mph - N/A   Clear
5:34 PM 85.1 °F 89.4 °F 69.8 °F 60% 29.97 in 10.0 mi NNE 3.5 mph - N/A   Clear
5:54 PM 83.8 °F 88.1 °F 70.2 °F 63% 29.97 in 10.0 mi NNE 4.6 mph - N/A   Clear
6:14 PM 83.5 °F 88.0 °F 70.5 °F 65% 29.97 in 10.0 mi Calm Calm - N/A   Clear
6:35 PM 82.0 °F 87.0 °F 72.3 °F 72% 29.97 in 7.0 mi Calm Calm - N/A   Clear
6:48 PM 81.9 °F 86.6 °F 72.0 °F 72% 29.98 in 7.0 mi North 3.5 mph - N/A   Clear
7:14 PM 80.6 °F 83.9 °F 69.8 °F 70% 29.98 in 10.0 mi North 3.5 mph - N/A   Clear
7:34 PM 79.7 °F - 67.8 °F 67% 29.98 in 10.0 mi North 4.6 mph - N/A   Clear
7:54 PM 78.4 °F - 67.6 °F 69% 29.98 in 10.0 mi North 6.9 mph - N/A   Clear
8:14 PM 77.9 °F - 66.6 °F 68% 29.99 in 10.0 mi NNW 3.5 mph - N/A   Clear
8:34 PM 76.6 °F - 65.8 °F 69% 30.00 in 10.0 mi NW 3.5 mph - N/A   Clear
8:54 PM 75.2 °F - 65.3 °F 71% 30.00 in 10.0 mi NNW 4.6 mph - N/A   Clear
9:14 PM 75.4 °F - 64.2 °F 68% 30.01 in 10.0 mi NNW 4.6 mph - N/A   Clear
9:34 PM 73.8 °F - 64.4 °F 72% 30.02 in 10.0 mi WNW 3.5 mph - N/A   Clear
9:54 PM 72.5 °F - 65.3 °F 78% 30.02 in 10.0 mi Calm Calm - N/A   Clear
10:14 PM 73.2 °F - 63.7 °F 72% 30.02 in 10.0 mi North 5.8 mph - N/A   Clear
10:34 PM 72.5 °F - 63.5 °F 73% 30.01 in 10.0 mi NNW 5.8 mph - N/A   Clear
10:54 PM 71.2 °F - 63.0 °F 75% 30.01 in 10.0 mi NNW 5.8 mph - N/A   Clear
11:14 PM 70.9 °F - 62.4 °F 75% 30.00 in 10.0 mi NNW 6.9 mph - N/A   Clear
11:34 PM 70.0 °F - 62.1 °F 76% 30.03 in 10.0 mi WNW 3.5 mph - N/A   Clear
11:54 PM 68.7 °F - 63.0 °F 82% 30.04 in 10.0 mi West 5.8 mph - N/A   Clear